[Date Prev][Date Next][Thread Prev][Thread Next] - [Date Index][Thread Index][Author Index]

2 Line ISS Keps 3-6



ISS 
1 25544U 98067A   03065.15979454  .00032709  00000-0  41226-3 0  7535
2 25544  51.6369 177.7078 0011593 281.4839 147.9431 15.59225972244931



----
Via the sarex mailing list at AMSAT.ORG courtesy of AMSAT-NA.
To unsubscribe, send "unsubscribe sarex" to Majordomo@amsat.org



AMSAT Top AMSAT Home